Tracking 18186 objects as of 31-March-2017
HD Live streaming from Space Station
objects crossing your sky now

DELTA 2 DEB

Track DELTA 2 DEB now!
10-day predictions


NORAD ID: 27765
Int'l Code: 2000-040D
Perigee: 176.7 km
Apogee: 2,951.6 km
Inclination: 38.8 °
Period: 117.2 minutes
Semi major axis: 7935 km
RCS: 0.0144 m2 (small)
Launch date: July 16, 2000
Source: United States (US)
Launch site: AIR FORCE EASTERN TEST RANGE (AFETR)

Note: This is SATELLITE DEBRIS
Your satellite tracking list
Your tracking list is empty





NASA's NSSDC Master Catalog

Two Line Element Set (TLE):
1 27765U 00040D   17088.23743060 +.00253241 +33915-5 +41900-3 0  9990
2 27765 038.8303 136.4395 1748466 101.5833 278.5465 12.28195198419054
Source of the keplerian elements: AFSPC